RH
18 18 17 17 17 17 16 16 15 14 13 13 14 14 15 15 15 15 15 15 15 16 15 15 14 14 15 15 15 16 15 14 13 12 12 12 12 13 13 13 14 12 12 15 16 15 13 12 11 11 10 10 9 8 8 8 7 7 7 7 7 6 6 6 6 7 6 7 8 8 9 9 10 11 12 13 14 15 15 15 16 15 16 19 24 32 43 53
16 16 16 15 15 15 14 14 13 13 13 13 13 14 15 15 16 15 15 15 15 15 15 15 15 14 14 14 15 15 15 14 13 13 12 12 11 11 12 12 13 13 12 12 12 13 13 11 10 11 12 12 12 11 11 11 10 10 10 9 9 9 9 8 8 7 7 7 6 7 7 8 9 10 10 11 11 12 12 12 13 16 23 36 47 59 70 76
16 15 15 14 13 13 13 12 12 12 13 13 14 15 15 16 16 16 15 15 15 15 15 16 16 15 15 14 14 14 15 15 14 13 12 12 11 10 11 11 11 12 12 12 11 11 11 10 9 8 9 9 10 10 10 10 10 10 9 9 9 10 9 10 10 9 9 8 8 8 7 7 8 8 9 9 10 10 12 20 32 45 58 71 77 81 85 83
15 15 14 13 13 13 12 12 12 13 14 14 15 15 16 16 16 16 16 15 15 15 15 16 16 16 15 14 14 14 14 15 14 14 13 12 11 11 10 10 11 11 11 12 11 11 11 11 10 9 9 9 9 8 8 8 8 8 8 8 8 9 8 8 8 8 8 7 8 9 9 10 9 9 9 9 16 23 35 55 75 87 95 100 98 93 88 78
15 14 14 14 14 14 14 14 14 15 15 15 16 16 16 16 16 16 16 16 16 16 16 16 16 16 16 15 15 14 14 15 15 14 14 13 12 11 11 10 10 10 10 10 11 11 11 11 11 11 10 10 10 10 9 9 9 9 9 9 9 9 9 8 8 7 7 6 6 7 9 11 10 11 13 21 40 60 77 92 100 102 102 98 92 82 71 60
17 16 16 16 16 16 16 16 16 16 17 17 17 17 17 17 17 17 16 16 16 16 16 16 16 16 16 16 15 15 15 15 15 14 14 13 12 12 11 11 10 10 10 10 10 10 10 10 11 11 11 11 12 12 11 11 11 12 11 11 11 10 9 9 8 8 7 7 7 7 7 8 8 9 13 23 39 57 69 76 79 80 78 71 63 55 47 41
20 20 19 19 19 18 18 18 18 18 18 18 18 17 17 17 17 16 16 16 15 15 16 15 16 16 16 16 16 16 16 15 15 14 14 13 12 12 12 11 11 11 11 10 10 10 10 10 10 10 11 10 11 12 12 12 12 13 13 13 13 12 12 10 10 9 8 7 7 8 8 8 8 8 10 13 22 40 54 66 75 72 65 57 50 45 41 38
22 22 21 21 20 20 20 19 19 19 18 18 18 18 18 18 17 17 16 16 16 15 15 15 15 15 16 15 15 15 15 15 14 14 14 13 13 12 12 12 11 11 11 11 10 10 10 10 10 10 10 10 10 12 12 12 12 12 13 13 14 14 13 12 11 10 9 8 7 8 8 8 9 10 12 12 25 55 80 93 90 77 69 61 56 51 42 36
23 23 22 22 21 21 21 20 20 19 19 19 19 19 18 18 17 17 17 16 16 16 15 15 15 15 15 15 15 15 14 15 14 14 14 14 14 13 13 13 12 12 12 12 11 10 10 10 10 10 10 9 10 11 11 12 12 12 12 13 14 14 14 13 13 12 10 9 8 8 8 8 10 13 17 18 28 56 87 97 82 71 72 63 53 46 34 27
23 23 23 22 22 21 21 20 20 19 19 19 19 19 18 18 17 17 17 17 16 16 15 15 15 15 14 14 14 14 14 15 15 15 15 15 15 15 15 14 13 13 13 12 12 11 11 12 11 10 10 10 10 10 11 11 12 12 12 13 13 15 15 14 14 14 12 10 9 8 8 9 11 14 22 33 40 51 69 76 70 70 67 50 37 31 25 23
22 22 21 21 21 20 20 19 19 19 18 18 18 18 18 17 17 16 16 16 15 15 15 15 14 14 14 14 14 14 14 15 16 16 16 17 16 16 16 16 16 16 16 15 13 12 13 13 13 12 10 11 11 11 11 11 11 12 12 13 13 14 15 15 15 15 13 11 9 9 8 9 12 15 25 43 56 59 62 64 63 60 50 40 34 28 27 26
23 23 22 22 22 21 20 20 19 19 19 19 20 20 20 18 17 18 18 18 17 16 16 16 15 15 15 16 15 15 15 16 18 18 17 18 18 18 18 18 18 18 19 18 15 14 14 16 15 13 12 13 13 11 11 11 10 11 11 12 13 14 14 15 16 16 15 13 10 9 8 9 12 15 22 40 55 59 60 58 52 44 38 39 37 32 30 26
35 33 32 31 30 29 28 27 25 24 24 26 28 28 27 24 23 23 24 25 22 21 21 20 19 19 20 21 19 17 17 18 20 20 19 18 18 19 20 19 19 19 19 19 17 16 17 19 19 16 15 15 14 13 13 12 11 11 11 12 14 15 14 14 16 17 17 15 12 10 9 10 13 15 19 31 47 55 56 51 42 34 33 34 32 30 28 23
46 44 44 43 42 41 39 36 34 32 33 35 37 37 35 32 30 30 31 32 29 27 26 25 24 23 25 25 22 20 21 21 22 23 21 20 19 19 20 21 21 20 19 18 19 19 20 22 21 19 20 18 15 15 15 14 13 12 12 12 14 16 15 14 15 18 18 16 13 11 10 10 13 16 19 26 38 47 51 51 43 34 30 27 26 24 22 22
53 51 50 49 48 47 46 43 40 38 39 41 41 41 39 37 35 34 34 34 32 31 29 28 27 26 27 26 24 22 23 23 23 22 22 22 20 20 20 21 21 21 20 19 19 20 21 24 25 23 21 19 19 20 18 16 15 13 12 13 14 16 16 14 14 17 18 17 15 12 11 11 13 17 21 27 36 41 43 45 43 35 29 26 24 22 22 26
54 52 50 49 48 48 48 47 44 41 41 42 41 41 39 37 36 35 34 34 32 31 30 29 28 27 27 26 24 23 22 22 21 20 20 20 20 19 19 19 20 20 20 20 20 21 22 25 26 23 21 21 23 23 20 20 18 14 13 14 14 16 16 14 13 15 18 19 17 13 12 11 13 17 24 32 40 44 41 37 37 34 31 28 27 25 25 30
50 50 49 48 47 46 46 46 44 41 40 41 40 38 37 36 35 34 32 32 30 29 28 27 26 25 24 23 22 21 21 20 19 19 18 17 17 17 17 17 18 18 19 19 20 21 21 23 23 22 20 21 23 24 25 25 18 14 14 15 16 16 17 16 14 14 16 19 19 15 13 12 12 15 24 34 40 46 44 35 33 35 34 33 31 29 29 33
51 51 50 48 47 46 45 44 43 41 40 40 39 37 36 35 33 32 30 29 27 26 24 23 22 21 20 20 19 18 18 18 17 16 16 16 15 15 15 15 15 16 16 17 18 18 19 20 21 21 21 22 26 28 29 23 16 16 17 17 18 18 18 17 16 14 15 18 19 17 15 13 13 12 20 33 41 44 45 39 36 37 37 36 35 33 34 36
53 51 50 49 47 46 45 44 43 42 40 39 38 36 35 33 31 29 27 26 24 23 22 20 20 19 18 17 17 16 16 15 15 15 14 14 14 14 14 13 13 14 14 15 15 16 17 18 20 22 23 23 24 25 24 18 15 18 20 20 21 20 19 17 17 16 15 17 19 19 17 15 14 13 15 29 43 42 40 40 38 36 36 38 40 38 36 36
52 50 48 47 45 43 42 41 39 38 36 35 34 32 31 29 28 26 24 23 21 20 19 19 18 17 17 16 15 15 15 14 14 14 13 13 13 12 12 12 12 12 12 13 13 14 15 17 19 21 21 19 18 19 20 17 16 20 24 24 24 23 21 19 18 17 15 16 18 19 19 18 16 14 13 24 43 45 39 39 38 34 33 35 40 38 34 33
46 45 44 42 40 38 37 35 34 32 31 30 28 27 26 25 24 23 22 20 20 19 18 18 17 16 15 15 15 14 14 14 14 13 12 12 12 12 12 11 11 11 11 11 12 13 14 15 16 17 16 16 16 18 19 19 18 21 27 28 28 28 24 20 20 18 16 15 18 19 19 20 17 15 13 19 38 51 44 37 36 33 30 30 34 36 32 27
38 37 36 35 33 32 30 30 30 29 28 27 26 25 24 23 22 21 20 19 18 18 18 17 16 17 15 14 14 14 15 15 13 13 13 13 13 12 12 12 11 11 11 11 12 12 12 13 13 14 15 16 18 20 22 25 23 25 31 33 32 32 27 23 22 19 16 16 18 19 19 21 18 15 15 15 28 51 50 36 35 34 31 31 31 32 29 23
33 33 32 32 30 29 28 28 28 27 26 25 24 23 22 21 20 19 18 18 18 17 18 18 17 18 16 13 13 14 17 18 15 14 14 14 13 12 13 15 14 12 11 12 12 11 12 12 12 13 14 16 18 20 23 25 24 27 34 39 39 35 30 27 24 20 18 17 19 20 20 21 19 16 17 15 19 44 51 34 33 36 31 31 28 26 26 20
26 26 26 26 26 25 25 24 24 23 22 21 20 19 19 18 17 18 17 18 20 20 19 19 19 20 18 14 12 16 21 21 18 16 17 16 14 14 15 16 15 15 15 13 12 12 11 11 11 12 12 14 15 18 20 21 22 23 29 41 42 34 31 28 24 23 21 19 20 21 21 21 20 17 18 17 16 35 49 34 29 34 28 28 26 21 21 18
18 18 18 18 18 18 18 18 18 18 17 17 17 16 16 16 16 16 17 18 22 24 21 19 22 22 20 16 15 17 21 23 22 18 18 19 17 17 17 16 17 18 17 15 15 15 13 11 12 12 12 12 13 15 17 19 21 20 26 42 40 27 27 27 23 25 24 22 21 21 22 21 21 20 19 20 15 25 45 40 29 31 28 25 24 18 16 16
15 15 15 15 15 15 15 15 15 15 16 16 15 16 16 16 16 16 18 18 22 29 26 19 21 23 22 19 17 18 21 28 29 19 18 22 20 21 20 18 17 17 17 18 19 18 14 12 13 14 13 12 12 13 14 16 18 19 26 36 32 21 23 25 23 25 27 24 20 21 24 23 23 22 20 22 18 17 36 45 35 31 28 22 19 15 13 13
15 15 15 15 15 15 15 15 15 15 16 17 16 17 17 18 18 18 19 19 22 31 34 25 20 21 26 26 22 18 20 30 31 21 19 23 21 22 23 21 21 19 18 19 21 19 15 16 17 16 14 13 13 12 12 13 15 18 21 22 22 19 20 23 22 25 30 26 21 23 27 27 26 24 23 24 20 14 25 45 45 33 27 21 15 13 11 11
15 15 15 15 15 16 17 16 16 15 16 18 18 19 20 21 21 21 22 21 23 32 39 36 27 22 25 30 31 26 21 26 29 24 21 21 20 22 24 28 30 23 16 18 23 21 18 20 19 16 17 17 16 13 12 13 13 14 15 15 19 19 18 21 20 24 30 27 26 31 30 31 30 25 25 26 22 15 17 39 53 43 29 20 14 12 11 12
17 16 16 16 16 17 18 19 18 17 17 19 20 22 23 23 23 24 24 23 26 34 41 43 38 30 25 27 33 35 29 25 26 26 24 22 23 22 24 33 35 24 16 21 28 26 22 23 20 19 21 20 17 15 14 15 14 12 12 13 17 18 18 20 20 25 29 28 35 41 36 36 35 28 29 28 21 17 15 29 53 57 40 22 14 12 12 14
19 18 17 16 17 18 18 20 21 20 19 20 22 24 25 25 25 25 25 26 33 39 42 44 43 39 32 27 28 34 38 33 27 25 25 26 28 24 22 29 32 27 21 23 31 32 27 25 22 22 22 19 17 17 18 19 16 12 12 12 14 15 15 16 18 22 23 29 44 48 42 41 38 33 32 28 21 20 17 19 38 59 55 32 15 12 13 16
21 20 19 17 18 19 19 20 21 22 22 23 24 24 26 27 27 25 25 29 37 41 42 43 44 43 39 32 27 29 36 40 36 29 25 27 32 30 28 28 30 33 28 28 42 43 30 25 25 22 20 18 18 19 20 21 19 15 14 13 12 12 12 12 16 16 17 35 53 49 42 44 41 37 35 29 23 21 20 17 20 41 58 47 25 13 13 17
23 22 21 20 19 19 20 21 22 22 23 25 26 26 27 28 27 26 27 32 36 37 40 42 43 43 42 38 33 28 30 37 41 38 29 26 30 33 34 31 30 32 28 31 45 42 24 21 23 20 19 20 22 23 22 21 19 16 14 13 12 11 11 10 12 13 16 37 56 46 35 42 45 42 36 31 28 23 21 20 16 24 45 55 42 23 15 16
23 23 22 22 21 19 20 21 23 23 23 24 26 28 28 27 26 28 31 35 34 33 37 40 41 40 40 40 38 32 29 31 36 39 35 29 27 30 33 32 27 27 28 31 36 30 20 20 23 22 25 28 28 25 21 19 17 15 14 14 14 13 12 10 10 12 15 30 46 38 27 38 48 46 40 34 30 25 22 21 19 17 28 48 52 39 25 19
23 22 22 23 22 21 20 20 22 24 23 23 24 27 29 28 28 30 32 34 34 32 33 36 38 38 37 38 37 35 32 30 30 33 34 32 29 29 32 35 31 28 31 34 33 32 26 23 27 30 29 27 24 21 18 17 16 16 16 15 16 17 15 13 9 10 13 19 30 27 22 37 50 47 45 39 31 27 25 23 22 18 18 32 47 50 40 28
23 22 22 23 23 23 22 20 21 22 23 23 23 24 27 29 30 31 31 32 33 33 33 33 34 35 35 34 34 35 34 32 30 29 31 32 32 33 35 39 38 33 31 32 33 35 29 26 31 32 26 21 20 19 17 16 17 17 16 15 19 19 16 13 10 10 11 12 18 19 21 40 52 48 46 46 37 31 28 26 24 21 18 20 33 47 48 39
22 22 22 23 24 23 23 21 20 21 22 23 23 22 24 28 30 30 31 31 31 32 33 33 33 32 33 32 31 32 32 32 31 29 29 30 32 35 36 37 36 33 31 31 32 32 28 29 31 26 23 22 21 20 16 15 16 15 15 18 21 18 14 13 14 13 12 11 13 15 19 36 52 51 47 49 46 39 33 31 29 25 21 19 22 31 40 42
20 20 20 22 23 24 24 23 21 20 20 21 22 22 23 25 28 30 31 31 30 30 31 32 33 31 31 31 30 30 29 29 30 29 29 28 28 31 34 36 36 32 31 31 31 31 30 33 32 25 25 27 22 19 16 15 16 14 17 22 20 16 15 16 16 14 13 12 11 12 14 26 44 52 50 49 50 46 39 35 33 29 25 23 21 21 25 34
19 19 18 20 22 23 23 23 23 21 19 19 20 21 22 22 25 28 29 30 30 29 28 29 32 32 31 31 30 29 29 29 28 29 29 28 26 27 31 37 37 34 32 31 31 32 33 36 35 29 30 32 25 19 16 15 16 16 19 21 18 16 17 17 17 15 14 14 12 11 10 16 29 44 52 53 52 50 45 38 35 33 30 27 25 21 19 22
15 16 16 17 19 21 22 22 22 22 20 19 19 19 20 20 22 24 26 29 30 29 28 26 28 30 31 31 30 29 29 29 28 27 28 28 26 25 27 33 37 36 35 33 32 34 36 37 37 34 32 32 25 18 17 18 19 20 20 19 18 19 19 16 16 16 14 16 15 12 11 12 17 28 42 52 54 52 49 43 38 35 33 31 28 24 21 20
12 12 12 13 15 18 19 20 21 21 21 20 18 18 19 20 20 20 22 25 29 29 28 26 25 26 28 30 31 31 30 30 29 28 27 27 26 25 24 27 33 37 37 36 34 37 38 37 38 37 32 28 25 22 24 26 25 23 21 20 20 19 17 15 15 15 15 16 17 15 14 12 12 16 25 39 51 55 53 49 44 39 35 34 31 26 22 21
10 10 9 9 11 13 14 17 18 18 18 19 19 18 17 18 19 19 19 20 24 27 29 28 26 24 25 27 29 31 31 30 30 29 28 27 26 25 24 23 28 33 37 37 34 35 36 33 36 39 31 26 27 28 29 30 29 25 22 20 18 16 15 15 16 18 17 17 18 18 18 16 12 12 15 22 35 48 55 54 50 46 41 38 35 31 26 23
8 8 8 7 8 9 10 12 13 15 15 16 17 18 17 16 17 18 19 18 19 23 26 28 28 25 24 25 26 28 30 31 31 30 29 28 26 25 25 24 25 28 32 35 33 33 32 30 34 39 33 27 28 29 28 28 28 25 21 20 17 15 15 16 20 22 20 19 18 19 23 21 14 14 15 14 19 30 45 55 55 53 50 46 41 37 33 30
8 7 7 7 7 8 8 9 9 10 12 13 14 16 16 16 15 16 17 18 18 18 21 25 27 27 25 24 25 26 27 29 30 30 29 29 28 26 26 24 24 25 26 30 30 29 30 30 31 37 36 29 26 27 26 25 25 22 20 20 19 16 16 17 21 22 21 21 21 22 27 23 15 17 19 16 15 16 25 41 53 57 55 52 49 44 39 36
9 9 8 7 7 7 7 8 8 8 8 9 10 12 14 15 14 14 15 17 17 17 17 19 23 26 27 26 25 25 25 26 27 29 29 29 29 28 28 26 25 24 24 25 26 26 27 28 28 33 37 31 25 24 23 23 23 21 21 21 20 19 18 17 18 18 19 22 23 25 32 27 17 18 20 19 18 16 14 22 37 52 57 55 53 50 47 42
9 10 10 9 9 9 8 7 7 8 7 8 8 9 10 12 13 14 14 14 15 16 17 17 17 20 24 26 26 24 24 24 25 26 27 27 28 28 29 29 27 25 24 23 23 23 23 25 25 28 34 33 26 22 22 24 24 24 24 24 23 23 21 20 20 17 17 20 20 24 34 31 19 16 18 19 19 18 16 14 19 33 49 56 56 54 53 50
7 7 8 9 9 10 11 10 9 8 8 7 7 7 8 9 10 12 13 13 13 13 15 16 16 16 18 22 25 25 24 24 23 24 24 25 26 26 28 29 29 27 25 24 23 22 21 21 22 23 28 31 28 23 22 23 23 23 25 25 25 26 25 24 21 16 17 19 18 20 28 30 24 19 16 17 19 19 19 18 15 18 28 43 53 56 56 54
4 5 5 5 6 7 9 11 12 12 11 9 8 7 7 8 8 9 10 12 12 12 13 14 15 15 15 16 20 23 25 25 23 23 22 22 23 24 25 27 29 29 27 25 25 24 23 21 20 20 23 27 29 25 22 22 21 22 24 25 25 26 27 23 18 18 20 18 17 22 24 25 27 25 17 16 18 18 18 19 19 17 17 23 35 46 52 53
3 3 3 4 4 4 5 7 9 11 13 13 12 10 8 8 7 8 8 9 10 11 11 12 12 13 14 14 15 18 22 24 24 23 22 21 22 23 23 23 26 28 28 26 25 26 25 23 21 20 21 25 29 29 26 23 22 22 24 25 25 26 27 24 21 22 21 18 21 28 24 19 23 24 19 17 17 18 20 19 19 20 19 18 19 25 35 44
2 3 3 3 3 3 3 4 5 7 9 11 13 13 12 10 8 8 8 8 8 9 10 10 10 11 12 13 13 14 16 20 23 23 22 21 20 22 23 22 22 25 27 27 25 25 25 24 23 21 21 24 28 31 30 26 23 22 22 23 24 24 24 24 24 23 22 20 24 28 22 18 21 22 21 19 17 18 20 20 21 21 21 21 20 17 20 28
2 2 2 2 3 3 3 3 3 4 5 7 10 12 14 14 13 10 9 8 8 8 8 8 9 10 10 11 12 13 14 15 18 21 22 20 19 20 22 22 21 22 24 26 25 24 23 24 23 21 20 22 25 29 30 29 24 21 21 21 21 22 22 23 22 21 20 19 21 24 20 19 22 24 25 24 20 19 20 21 23 22 21 22 22 21 19 18
2 2 2 2 2 2 2 3 3 3 4 4 6 8 10 13 15 15 13 10 8 7 7 8 8 8 9 10 11 11 12 13 14 17 19 20 19 19 20 21 21 20 21 23 24 24 23 22 22 21 20 21 23 25 27 28 25 21 19 18 19 20 21 23 23 21 19 18 20 20 16 21 29 28 25 26 22 19 19 20 21 22 22 22 22 23 23 21
2 2 2 2 2 2 2 2 2 3 3 3 4 5 6 8 11 14 16 15 13 9 8 7 8 8 8 9 10 10 11 12 12 14 16 17 18 18 18 19 20 21 20 21 21 22 23 22 22 21 19 20 23 23 24 27 26 20 15 17 21 22 23 25 26 23 20 19 19 16 15 27 38 30 20 21 23 20 19 18 20 23 23 23 23 24 25 26
Wind_Speed
32 31 30 30 29 28 28 27 26 24 23 22 21 21 20 20 19 17 17 16 16 16 15 14 13 13 13 13 12 13 13 12 10 9 8 7 6 5 5 5 5 5 6 6 6 5 5 5 7 8 10 13 15 17 19 20 21 22 23 24 26 27 27 28 30 31 31 31 32 34 35 36 36 38 40 40 40 41 42 42 41 41 40 39 38 37 35 33
33 33 32 31 30 30 29 28 27 26 25 24 23 22 22 21 21 20 19 18 18 18 18 17 16 15 15 14 14 13 14 14 13 11 8 7 6 4 2 2 2 2 2 3 5 5 5 5 5 6 7 8 9 11 12 14 15 17 18 20 22 24 25 27 28 29 30 30 31 32 34 35 36 38 39 40 40 40 41 40 39 39 37 36 34 33 31 30
34 34 33 32 31 31 30 29 28 27 26 25 24 23 23 23 22 22 21 21 20 20 20 19 18 18 17 17 16 15 15 16 15 14 11 9 8 6 3 2 2 1 1 2 3 4 5 5 5 6 6 6 7 7 8 8 9 10 11 12 14 16 18 20 22 25 27 28 30 32 33 34 36 38 39 39 40 40 40 39 37 36 34 33 31 30 28 27
35 34 33 33 32 32 31 30 29 28 27 26 25 25 25 24 24 24 24 23 23 22 22 22 21 21 21 20 19 18 17 17 18 17 16 14 12 10 8 6 5 5 4 4 4 4 5 5 6 6 7 7 7 7 7 7 7 8 8 8 9 10 12 14 15 17 20 21 23 27 31 34 37 38 39 39 38 38 37 36 34 33 31 30 29 28 27 26
35 34 34 33 33 32 32 31 30 29 28 27 27 27 26 26 26 26 26 25 25 25 24 24 24 24 24 23 22 21 20 19 19 19 19 19 16 14 12 10 8 8 8 7 7 7 6 6 6 7 7 7 7 7 8 8 8 8 8 8 9 10 11 12 13 14 15 15 16 19 23 28 32 34 36 36 36 36 35 33 32 31 30 29 29 28 27 25
35 35 35 34 33 33 32 32 31 30 29 29 29 28 29 29 28 28 28 28 27 27 27 27 26 26 27 27 26 25 23 22 21 21 21 22 21 18 17 15 13 11 12 11 10 10 9 9 8 9 9 8 8 8 9 9 8 8 8 9 9 9 11 12 13 14 14 13 13 15 17 21 25 27 30 32 33 33 32 31 30 29 28 27 26 25 23 21
36 36 36 35 35 34 34 33 33 32 32 31 31 31 31 31 31 31 31 30 30 30 30 29 29 29 29 29 29 28 27 26 24 24 24 24 24 23 21 19 18 15 15 15 13 13 12 12 12 11 11 11 10 9 10 11 10 10 10 10 9 9 10 11 13 14 14 14 13 14 15 17 19 21 23 26 27 27 26 25 24 23 23 22 21 19 18 17
38 37 38 37 37 37 36 36 36 35 34 34 34 34 35 35 34 34 34 33 33 33 32 32 32 32 32 31 31 31 30 29 28 27 25 25 26 26 24 23 22 20 19 19 17 15 15 15 15 14 14 13 12 12 12 13 12 11 11 11 10 11 12 11 12 14 14 15 14 14 14 14 15 17 19 21 22 21 19 19 18 18 18 18 17 16 15 14
40 40 40 40 40 40 39 39 39 38 38 37 37 38 38 38 38 37 37 37 36 36 35 35 35 35 34 34 33 33 32 31 31 29 28 27 27 27 27 25 25 23 22 22 21 18 16 17 18 18 17 16 15 15 14 14 14 13 12 12 11 11 13 13 12 14 15 15 14 13 14 14 13 15 17 17 17 17 17 17 15 14 14 15 14 13 12 10
43 43 43 43 43 43 43 42 42 41 41 40 41 41 42 42 41 40 40 40 40 38 38 38 38 37 37 36 35 35 34 33 34 33 31 30 29 28 28 28 27 26 25 25 25 23 18 19 21 21 19 18 18 18 17 17 16 15 15 13 12 11 13 14 13 14 16 17 15 14 14 14 14 15 15 12 11 11 13 14 12 11 10 10 10 10 8 7
46 46 45 45 45 45 45 45 44 44 43 42 43 44 44 44 42 42 42 43 42 41 40 40 40 40 39 38 38 37 36 35 36 36 35 34 33 31 30 31 30 29 28 28 29 26 22 21 24 24 21 19 21 20 19 19 18 18 17 15 15 13 12 13 14 14 16 17 17 15 15 15 14 15 13 9 8 9 8 8 8 8 6 5 6 7 6 6
48 47 47 47 47 47 47 46 46 45 44 44 44 46 46 45 44 43 44 44 44 43 42 42 42 41 41 40 40 39 38 38 37 38 39 37 36 35 34 33 32 32 32 31 31 29 26 24 26 27 23 21 23 22 21 21 20 19 19 18 17 16 14 13 13 14 16 17 17 15 15 16 15 15 13 8 5 6 7 7 6 5 3 3 4 5 5 6
50 50 49 49 49 49 49 49 48 47 46 46 47 48 48 47 45 45 45 46 46 45 44 44 43 43 42 42 42 41 40 40 39 40 40 40 39 38 37 36 35 35 35 34 33 32 29 28 29 29 26 25 25 23 23 23 22 20 20 19 17 17 17 15 13 13 15 17 17 15 14 16 15 14 13 10 5 4 5 7 6 5 3 2 3 4 5 6
52 52 52 51 51 51 51 51 50 49 47 48 48 49 49 48 47 46 46 47 47 46 45 45 44 44 44 45 44 42 41 42 42 42 42 42 42 40 40 39 38 38 38 37 35 34 32 32 32 32 30 29 26 24 25 25 25 22 20 20 18 17 19 18 14 13 15 17 17 14 13 14 15 15 14 12 7 4 4 6 7 6 4 2 3 4 6 7
54 54 53 53 53 53 53 53 52 50 49 49 49 50 50 49 48 48 47 48 49 48 47 46 46 46 46 47 47 44 44 45 45 45 44 44 44 44 43 42 41 40 40 39 37 36 35 35 36 35 33 31 28 27 27 27 28 24 21 20 18 17 20 20 16 13 14 16 16 14 11 12 15 15 14 13 10 6 4 5 7 6 4 3 3 4 6 7
56 56 55 55 54 54 54 54 53 51 50 50 51 51 51 50 50 50 49 50 51 50 50 49 49 49 49 51 49 46 48 49 48 47 47 47 47 47 47 45 44 43 43 41 40 39 38 38 39 38 36 33 32 31 29 29 30 27 21 19 19 19 21 21 19 15 13 15 16 14 10 10 12 13 13 12 11 8 6 6 7 7 5 4 4 5 7 8
58 57 57 57 56 56 56 56 56 54 52 53 53 53 53 53 52 52 52 53 54 54 53 52 53 52 52 54 52 50 52 52 51 51 51 51 50 50 50 49 49 47 46 45 44 43 42 42 42 40 38 36 36 34 33 34 32 27 22 20 21 22 22 22 20 18 14 13 16 15 10 8 9 11 11 12 11 9 7 6 6 6 6 5 5 6 8 9
60 60 59 59 59 58 58 58 58 57 55 55 56 56 56 56 55 55 56 56 57 56 56 56 56 55 55 56 55 54 54 55 54 54 54 55 54 53 53 53 53 52 51 50 49 48 46 46 44 42 41 39 38 37 38 37 32 28 24 21 23 24 24 23 21 20 16 14 16 15 11 9 8 9 10 11 11 9 8 7 6 6 6 7 7 7 8 9
63 62 62 62 61 61 61 61 61 61 59 59 59 59 58 58 58 58 59 59 59 58 58 58 58 57 56 55 55 54 54 55 54 54 55 55 55 54 54 54 54 54 54 53 52 51 50 49 47 46 45 43 42 41 42 39 32 29 27 24 25 26 26 25 22 20 18 16 16 15 13 10 9 8 9 10 10 10 9 8 7 7 6 7 8 8 9 9
66 66 66 66 65 64 64 64 64 64 63 62 62 62 61 60 60 60 60 60 60 59 59 58 58 57 56 54 52 52 53 52 52 54 53 53 53 54 53 53 54 54 54 54 53 53 53 52 52 52 50 47 45 44 44 41 35 31 30 28 27 29 29 27 24 22 20 17 16 16 14 11 10 8 7 8 8 10 10 8 8 7 6 6 8 9 9 9
69 69 69 69 68 67 66 66 66 65 65 65 64 63 62 62 61 60 61 60 59 58 57 57 56 56 55 51 49 49 49 50 52 52 51 50 50 51 52 52 53 53 53 53 53 54 55 56 57 55 52 49 48 46 45 43 38 34 33 32 30 32 32 28 26 25 22 19 16 17 15 13 12 8 6 6 6 9 9 8 6 6 6 6 7 9 9 9
71 71 72 72 71 70 68 68 68 67 67 66 65 64 63 62 61 60 59 59 59 57 55 56 54 55 55 49 46 46 45 49 52 49 48 48 48 50 51 50 51 52 50 50 52 53 55 57 56 54 53 52 50 48 47 46 42 37 36 36 35 36 33 29 29 26 23 20 17 17 16 15 14 9 6 6 6 7 7 6 4 5 6 7 8 8 8 9
73 73 74 74 73 73 70 69 69 68 67 67 66 65 63 62 60 59 58 57 58 56 54 55 53 53 54 49 44 41 42 48 49 46 47 48 48 48 46 46 48 48 46 48 50 51 53 54 52 53 54 53 53 51 50 49 45 42 40 39 41 40 35 32 30 27 25 21 17 17 17 18 17 10 6 7 7 6 6 3 3 4 5 6 7 8 9 10
74 74 74 75 75 74 72 70 69 69 68 68 67 66 64 63 61 60 57 55 56 56 55 54 52 52 53 50 42 38 42 47 47 45 46 47 46 44 43 44 43 42 43 46 47 47 50 50 49 51 53 54 55 54 53 51 49 47 44 44 47 43 37 35 31 28 28 24 19 19 18 19 19 12 7 8 8 7 5 3 3 4 4 5 7 8 10 11
75 75 75 75 76 76 75 72 70 70 70 69 68 67 65 64 62 60 58 55 53 57 58 53 50 52 52 48 42 40 43 46 47 45 43 45 44 42 42 42 40 39 42 42 41 44 46 45 45 48 50 52 53 53 54 53 52 50 47 49 51 45 39 36 31 30 30 27 22 19 19 21 20 15 10 10 9 8 6 4 4 4 5 6 8 9 12 13
77 76 75 76 75 76 76 74 71 70 70 70 69 67 66 64 63 61 59 56 52 56 60 54 50 51 51 48 44 43 41 44 49 44 40 44 43 40 40 39 40 41 39 35 34 40 43 41 41 43 45 47 49 52 54 55 54 52 52 53 52 46 41 37 34 31 31 30 24 19 20 21 21 18 14 12 12 11 9 6 5 6 6 8 10 12 14 15
78 76 76 76 75 75 76 75 73 71 70 70 69 67 66 64 64 61 60 57 52 56 60 57 52 50 49 49 47 44 42 46 50 43 40 46 44 40 37 36 39 40 36 30 31 36 37 35 37 40 41 42 44 48 51 51 52 55 55 54 52 48 43 40 36 32 32 32 26 20 20 21 22 21 18 16 17 15 11 8 8 8 8 10 12 15 16 16
78 77 76 75 74 74 74 75 74 72 71 71 69 67 66 65 64 62 61 58 54 56 59 58 55 51 49 49 48 47 45 47 48 44 45 48 45 40 36 34 37 39 35 29 31 34 31 29 33 35 35 38 42 43 42 44 50 55 54 51 53 51 46 42 37 33 34 32 27 24 21 22 26 25 22 22 21 18 13 10 10 10 10 12 15 17 17 17
78 77 76 76 75 73 73 74 75 73 72 72 70 68 67 66 64 63 62 59 57 56 57 58 57 54 51 50 50 49 47 48 48 46 47 47 46 43 40 38 39 39 34 30 32 33 28 29 31 29 31 36 39 38 37 40 47 49 48 50 53 52 48 45 39 37 37 31 28 28 24 24 28 27 26 27 25 19 14 13 13 13 13 14 17 19 18 18
79 78 77 76 75 74 74 74 74 75 74 74 72 69 68 67 66 66 63 60 59 58 57 58 58 57 54 52 52 52 51 50 49 48 48 48 48 46 43 43 40 37 34 31 32 33 31 31 29 28 31 34 34 33 34 38 42 42 42 47 51 52 51 47 43 42 37 31 31 34 30 28 29 30 31 31 26 22 19 17 17 17 16 17 19 21 20 19
79 78 78 77 76 76 76 75 75 76 76 76 74 71 70 69 68 67 62 60 63 61 58 59 59 59 58 56 54 54 54 53 51 50 49 49 50 46 44 45 42 38 35 32 34 37 36 34 32 31 31 29 27 27 30 34 38 38 39 43 47 49 50 46 44 43 37 34 37 40 36 31 30 34 35 31 28 25 23 21 20 19 19 19 20 22 22 21
81 80 78 77 77 78 78 77 77 77 77 78 78 75 73 71 69 66 62 64 67 63 60 61 60 61 62 60 58 57 58 56 54 53 51 51 51 48 46 47 46 43 39 38 41 43 40 36 35 33 30 26 24 25 28 31 35 37 37 39 39 42 44 43 44 43 39 42 44 44 40 33 33 37 36 33 32 30 27 24 22 21 21 21 22 23 23 23
84 82 80 79 78 79 79 79 79 79 79 80 80 79 77 74 69 65 64 68 69 65 64 64 63 64 65 64 63 61 60 59 58 56 54 52 52 50 49 49 48 45 41 43 46 44 39 35 33 31 30 30 29 30 31 31 33 33 33 34 34 35 36 38 43 44 45 49 48 45 41 33 33 39 38 37 35 31 29 27 25 24 23 24 24 24 24 24
86 84 83 81 80 79 80 82 82 82 82 82 82 82 80 75 70 67 69 71 71 69 69 68 67 67 67 68 68 65 63 62 61 59 57 54 53 52 51 50 49 47 45 45 45 42 39 36 34 34 36 36 34 34 33 30 28 26 27 29 28 30 33 36 41 43 46 51 49 45 39 32 34 42 42 40 35 32 32 31 29 28 26 26 25 25 25 27
86 86 84 83 83 81 81 83 85 86 86 85 84 84 82 77 74 73 73 73 73 72 72 72 72 71 71 71 71 69 67 66 64 61 60 57 54 54 53 52 51 50 49 48 46 45 42 39 40 41 40 36 33 33 32 28 26 25 25 23 24 30 34 34 35 35 40 45 46 44 40 36 40 44 43 40 36 34 34 33 33 32 29 28 27 28 28 29
87 86 84 83 84 85 84 84 86 87 88 88 87 85 82 80 80 79 77 76 75 75 75 76 76 75 74 74 73 72 71 69 67 64 63 61 58 57 57 56 54 53 51 50 49 48 44 43 45 43 38 36 34 33 30 26 26 25 21 20 26 30 28 26 29 31 33 38 43 46 46 45 46 46 44 42 40 38 37 36 36 36 33 31 31 31 32 31
87 87 85 84 85 87 87 86 86 88 90 91 90 86 84 85 85 83 81 79 78 78 78 79 79 78 77 76 75 75 74 72 70 68 67 65 63 61 58 58 57 55 53 52 50 48 45 45 47 42 37 38 37 34 30 26 25 23 20 24 27 23 20 22 26 29 30 33 40 47 49 50 50 49 49 46 43 42 41 40 39 38 36 35 34 35 34 33
88 89 87 86 86 88 89 89 88 88 89 91 91 89 88 88 88 87 85 83 81 81 81 81 81 80 80 79 78 77 77 76 74 72 70 69 67 64 61 60 60 57 55 53 50 49 47 46 46 42 40 40 38 33 29 25 24 23 24 25 23 18 19 21 23 26 28 29 33 39 46 51 53 54 54 51 48 47 46 43 41 40 39 38 38 37 36 34
90 90 89 88 89 90 90 90 90 90 90 91 92 93 92 91 90 91 90 87 85 84 84 84 83 82 82 82 81 80 79 79 77 75 74 72 70 66 64 63 62 59 57 55 53 51 50 48 47 45 44 43 38 32 28 27 27 27 26 24 21 19 21 21 22 22 23 25 28 32 40 50 56 58 57 54 52 50 48 46 44 41 41 41 42 40 37 35
93 93 92 90 92 93 92 92 93 92 92 92 93 94 95 94 93 94 92 91 89 87 86 86 85 84 84 84 84 83 82 81 80 78 77 75 72 69 68 66 65 62 61 59 57 56 54 51 48 48 48 43 38 33 32 33 33 31 28 26 23 22 22 21 19 19 20 23 26 29 35 45 53 57 58 56 54 52 51 49 46 44 43 43 43 42 39 38
97 97 95 93 94 95 94 94 95 95 95 94 94 94 96 97 97 96 96 94 92 91 90 89 88 87 86 86 86 86 86 84 83 82 80 78 75 73 71 69 68 66 65 64 62 60 58 53 50 51 50 45 41 40 40 40 37 34 31 28 26 24 21 17 15 16 20 21 23 25 29 37 46 51 55 56 55 53 52 51 50 47 45 44 44 43 41 41
101 101 99 97 97 97 96 96 96 97 97 97 96 96 96 98 99 99 99 98 96 95 94 92 91 91 90 89 89 89 88 87 86 85 84 81 78 76 74 72 71 70 69 68 66 63 59 56 54 53 52 49 47 47 46 44 42 38 33 30 28 24 18 14 14 17 19 19 21 20 21 31 40 42 46 51 54 55 53 52 52 51 49 47 46 44 43 42
105 104 102 100 100 100 99 98 97 97 98 98 98 97 98 99 100 100 102 102 100 98 97 96 95 94 93 93 92 91 90 89 89 88 87 85 82 79 77 75 74 73 72 71 70 66 63 60 58 56 55 54 52 50 48 46 44 40 34 32 30 24 20 18 18 18 16 15 17 16 16 28 35 35 36 42 47 53 55 54 53 54 53 51 49 48 46 45
108 107 106 103 103 102 102 101 100 99 99 99 99 99 99 100 100 101 103 105 104 101 99 99 99 98 97 96 95 94 93 92 91 91 90 88 86 83 80 78 77 76 75 74 73 70 67 65 61 59 59 58 56 53 50 47 45 41 37 35 32 29 28 25 22 20 17 14 15 14 14 26 33 33 32 35 39 45 52 55 55 56 56 54 53 52 51 49
108 108 108 107 106 105 104 103 102 102 102 101 100 100 100 100 100 101 104 106 106 104 102 102 102 101 100 99 98 97 96 95 93 93 92 91 89 87 84 82 80 79 78 76 75 73 71 69 65 63 62 60 59 56 52 50 48 44 42 39 36 35 33 30 29 25 20 17 17 16 15 25 32 32 31 31 33 37 43 50 54 56 57 57 56 55 55 53
105 105 106 106 106 106 106 105 105 105 104 103 102 101 101 101 100 101 103 106 106 105 105 105 104 103 102 101 101 100 99 98 96 95 94 93 91 90 88 86 84 82 81 79 77 76 74 71 69 67 65 63 62 60 57 55 51 47 46 45 43 41 39 38 34 25 21 21 20 19 20 23 30 32 30 28 29 30 34 39 46 52 56 58 58 57 56 55
98 99 100 102 101 101 102 105 106 107 107 106 105 104 103 102 102 101 102 105 106 107 108 108 106 105 104 103 103 103 102 101 100 98 96 95 93 92 91 90 89 86 84 82 80 78 76 74 73 70 68 66 64 63 61 59 54 51 50 49 47 46 44 41 33 26 27 26 20 21 25 23 26 33 31 27 26 26 28 31 35 41 48 54 58 59 58 57
85 87 89 92 94 93 95 98 102 106 107 107 107 107 105 105 104 103 103 104 105 107 109 109 107 106 105 104 104 105 104 104 103 102 100 97 95 94 93 93 92 90 88 85 83 81 79 77 75 73 71 69 67 66 66 63 59 56 54 51 49 49 46 41 35 34 34 27 22 26 28 23 25 31 32 29 26 24 24 25 27 30 36 43 52 58 60 60
72 74 76 79 82 83 85 89 93 99 103 105 108 109 108 107 107 106 106 106 106 106 107 108 108 107 106 105 105 105 106 107 106 105 103 100 98 96 96 95 94 93 92 89 87 84 82 80 79 76 73 72 71 71 70 68 65 61 58 54 52 51 47 43 40 39 37 31 31 34 30 25 27 31 33 32 29 25 23 23 24 27 30 34 41 49 57 61
62 64 66 68 70 72 75 78 82 88 93 99 105 108 109 110 110 110 109 108 108 107 106 107 107 107 107 106 106 106 107 108 108 107 105 104 101 99 98 98 96 95 94 93 91 88 85 83 81 79 77 76 75 75 74 72 68 65 62 58 55 51 48 45 44 42 39 36 37 38 34 30 33 35 35 35 31 27 25 25 25 26 27 29 33 38 45 54
55 57 59 60 60 62 66 69 71 76 81 89 98 103 106 109 111 112 113 112 110 109 107 106 106 106 107 107 107 107 108 108 107 107 107 106 104 103 101 100 99 98 96 95 94 91 88 85 83 82 80 78 79 78 77 74 71 68 65 60 56 53 50 50 49 46 43 42 42 40 35 34 39 42 40 37 34 31 29 28 27 27 27 28 29 31 35 41
48 49 52 54 54 54 58 61 64 67 71 77 87 95 100 104 108 112 114 114 114 112 109 107 107 106 106 108 109 109 108 107 106 107 108 108 107 106 104 102 102 100 99 98 96 93 91 88 86 85 82 80 82 81 78 76 75 69 64 60 59 57 55 56 56 52 49 47 45 40 37 39 45 46 42 39 37 34 33 30 29 29 29 28 29 30 30 33
Wind_Direction
269 270 270 271 272 272 273 273 274 275 276 276 276 275 275 275 274 273 273 276 280 285 288 292 297 302 306 311 316 321 322 324 332 343 354 2 12 31 45 61 74 81 90 100 110 124 144 171 194 211 222 231 237 242 246 250 253 254 256 257 258 259 259 260 261 262 262 263 264 265 266 268 268 268 268 269 270 271 272 273 274 275 276 277 278 280 281 283
268 269 269 270 270 271 271 272 273 273 273 273 272 271 271 272 272 271 271 272 274 278 282 285 289 292 295 299 303 307 309 310 314 320 327 332 333 346 13 35 70 101 110 121 129 135 143 152 163 180 194 210 222 233 240 245 250 253 255 258 260 261 262 262 263 264 265 265 266 266 267 267 268 268 269 269 270 271 272 274 275 276 278 279 280 281 283 284
269 269 270 270 270 270 270 271 271 271 271 270 269 268 268 268 269 269 269 270 271 274 277 281 284 286 288 290 293 296 298 300 303 306 308 306 305 306 308 303 293 248 210 196 174 164 168 173 176 180 183 191 202 214 225 233 242 249 254 260 266 269 269 268 268 268 267 267 267 267 267 267 267 268 269 270 271 272 273 275 277 278 280 281 281 282 283 285
269 269 270 270 270 270 271 271 271 270 270 269 268 267 266 266 266 267 267 268 269 271 274 277 280 282 283 284 286 288 289 292 295 298 299 296 292 293 293 288 285 276 257 245 238 218 201 197 200 202 197 196 205 215 222 228 236 246 257 264 272 279 282 282 279 277 275 274 272 269 267 266 265 267 268 269 271 273 275 277 279 280 279 279 280 280 281 283
269 269 270 270 270 270 270 271 270 270 269 269 268 267 266 265 265 265 265 266 267 269 271 273 276 279 280 281 281 282 283 286 288 290 291 290 289 288 288 283 277 272 264 257 253 250 239 227 223 225 221 212 216 229 235 237 243 254 263 270 277 285 291 293 292 290 288 289 288 281 274 269 267 268 268 269 271 272 274 275 276 277 277 278 278 279 280 281
269 270 270 270 270 270 270 270 270 270 270 269 269 268 267 266 265 265 264 264 265 266 268 270 272 275 277 278 279 279 280 280 281 281 282 285 286 285 283 280 275 267 263 259 254 255 253 249 241 239 241 235 229 237 247 250 251 258 266 272 281 291 297 302 301 298 297 298 304 301 291 279 275 274 273 272 272 272 273 275 276 277 277 278 278 278 277 274
270 270 271 271 271 271 271 271 271 271 270 270 270 270 269 268 267 266 265 265 265 265 266 268 270 272 274 275 277 278 278 277 275 276 277 279 280 281 280 279 276 270 266 262 257 256 256 255 252 250 249 247 244 243 250 256 257 260 267 272 281 291 294 301 303 302 303 304 312 313 302 290 285 285 281 278 276 277 279 280 280 281 281 280 278 273 267 262
269 270 270 271 271 271 271 271 271 271 271 271 271 271 270 269 269 268 268 267 267 266 266 267 269 270 271 272 274 275 276 275 274 273 272 273 274 276 277 276 275 273 270 266 260 256 255 257 256 255 254 253 252 251 254 260 261 262 267 273 280 287 289 295 302 303 306 307 313 318 310 302 301 300 295 288 283 281 282 283 282 284 285 284 278 267 256 252
268 268 269 270 270 270 271 271 271 271 271 272 272 271 271 270 270 269 269 269 268 268 268 268 268 269 269 270 271 272 273 274 273 272 269 269 269 271 272 272 272 271 270 268 265 258 255 258 258 256 256 257 257 258 259 261 265 266 267 271 277 284 288 292 302 306 307 306 310 319 316 315 319 319 315 306 296 285 278 276 279 283 285 284 274 258 247 241
267 268 268 269 269 270 270 270 270 270 271 271 271 271 271 270 270 270 270 270 269 268 269 268 268 268 268 268 268 269 270 271 271 271 269 268 266 266 267 268 268 267 267 267 267 264 259 260 261 258 255 258 259 259 260 262 265 268 269 271 274 281 287 291 299 306 305 303 307 318 324 329 336 337 333 329 325 311 287 276 275 277 280 279 263 245 233 220
267 268 268 268 269 269 269 269 269 269 270 270 270 270 270 269 270 270 270 270 269 269 269 268 268 268 268 267 267 266 267 268 269 269 269 267 266 264 263 265 266 266 264 265 266 268 264 261 262 261 256 257 260 259 260 261 262 266 270 273 275 276 282 288 294 301 303 303 307 318 330 339 344 345 345 344 348 343 318 292 280 275 273 271 255 235 216 195
268 268 268 268 268 269 269 269 269 269 269 270 270 270 270 270 270 270 270 270 270 269 268 268 268 268 268 268 267 266 266 266 266 267 267 267 266 265 263 262 263 263 262 262 264 267 265 262 261 262 259 258 259 259 260 260 259 262 268 272 276 276 277 281 289 297 302 304 307 318 335 343 345 347 348 349 348 346 336 314 293 285 284 272 251 227 197 173
269 269 269 269 269 270 269 269 269 269 270 270 270 271 271 271 271 271 271 272 271 270 270 269 269 269 269 269 267 266 266 266 266 266 266 266 265 265 264 262 260 261 261 261 262 264 264 261 260 261 261 258 257 259 262 263 260 260 263 268 273 276 276 276 282 292 298 301 305 318 338 344 344 345 346 346 342 331 331 326 317 318 317 283 230 208 180 158
270 270 270 270 271 271 271 270 270 270 270 270 271 271 271 271 271 271 272 272 272 271 271 271 271 270 270 270 268 268 268 268 267 266 266 267 266 265 264 263 262 260 261 261 261 261 260 259 259 260 259 257 258 259 261 262 261 258 259 264 269 273 275 275 277 285 293 296 301 315 337 345 343 344 342 339 334 312 310 322 323 324 311 275 217 190 166 151
270 270 270 270 270 271 271 271 270 270 270 270 270 270 271 271 271 271 271 272 272 271 271 271 271 270 270 269 269 269 269 267 266 266 266 266 266 266 265 264 263 262 262 262 261 260 258 257 256 256 257 259 259 257 256 258 259 257 255 260 265 267 270 272 273 276 285 293 297 309 332 346 344 342 339 334 332 321 304 303 307 307 291 260 223 188 164 153
269 269 269 269 269 270 270 270 270 270 270 270 270 270 271 271 271 271 271 271 272 271 271 271 271 270 270 269 269 269 268 267 266 267 266 265 265 265 265 264 263 262 262 262 260 259 256 254 254 255 256 257 255 254 254 254 256 257 256 259 264 265 266 270 271 269 275 287 293 301 323 344 343 341 336 328 327 325 318 303 293 289 273 246 223 194 170 157
268 268 269 269 269 269 269 269 270 269 269 269 270 270 270 271 271 271 271 271 272 272 272 272 271 271 270 270 270 269 268 268 268 267 266 265 264 263 264 264 262 261 259 259 258 257 255 254 254 254 255 254 254 254 253 251 253 258 258 258 262 263 264 267 269 269 268 276 285 292 309 330 336 337 333 325 323 323 316 303 285 271 258 238 219 199 177 162
268 268 268 269 269 269 269 270 270 269 269 269 269 269 270 270 271 271 271 271 272 272 272 272 271 270 270 271 271 270 270 270 269 268 267 266 264 263 262 262 261 260 258 256 256 256 256 255 254 255 254 252 251 251 250 251 254 257 257 256 260 262 262 264 265 267 267 268 276 285 297 312 321 328 332 329 325 318 308 297 283 264 247 230 216 205 187 171
268 268 268 268 268 268 269 269 269 270 269 268 269 269 269 270 270 271 271 271 271 272 272 271 271 270 270 270 271 270 269 269 269 267 265 265 265 263 262 260 259 259 257 256 255 255 255 254 253 251 249 249 249 249 251 254 254 254 255 253 255 260 260 260 261 263 263 263 269 278 288 300 308 317 331 337 328 316 307 297 283 267 248 227 216 211 197 179
268 268 268 268 267 267 268 268 269 269 269 269 269 269 269 270 270 271 271 271 271 271 271 270 270 269 268 267 268 268 268 268 266 264 263 264 264 263 261 260 258 257 256 255 254 252 251 250 248 247 248 250 250 250 252 255 254 251 251 250 250 255 256 257 259 259 259 259 262 270 277 288 295 304 326 339 329 314 310 301 283 267 249 229 215 213 203 185
268 268 268 268 268 267 268 268 268 269 269 269 269 269 270 269 269 270 270 270 270 270 269 268 268 267 266 265 266 266 266 264 260 260 262 262 261 260 259 258 257 255 255 254 252 249 247 246 247 249 251 252 252 251 252 253 253 249 248 248 247 250 252 252 256 256 256 257 259 263 269 275 280 290 312 325 320 309 311 311 292 265 245 226 209 209 206 192
268 268 269 269 268 268 268 268 268 268 269 269 269 268 268 268 268 268 268 269 268 268 267 266 265 265 265 264 262 262 261 258 258 259 259 257 255 255 256 256 254 254 254 252 250 248 247 246 248 250 250 249 248 248 248 249 249 246 245 246 244 245 246 247 251 253 255 255 255 259 264 268 270 278 294 299 300 298 307 315 295 258 234 216 200 200 208 200
269 269 269 269 269 268 268 267 267 268 268 268 267 267 266 266 266 266 266 266 266 265 263 263 263 261 263 263 260 259 256 254 256 257 254 251 251 251 252 251 251 253 252 249 249 248 248 248 247 247 246 246 245 243 243 244 244 243 241 242 242 241 240 242 245 250 253 252 252 255 258 262 265 268 279 284 288 288 293 297 267 240 222 211 201 197 203 197
267 267 267 268 268 268 267 266 266 266 266 265 265 265 265 264 263 263 262 261 262 262 259 259 260 258 260 262 259 252 248 251 252 250 249 249 249 248 245 245 249 250 248 248 249 248 248 248 247 245 244 244 243 242 242 242 242 241 239 239 240 238 235 236 239 245 251 250 247 250 252 255 260 261 261 269 274 274 274 268 240 228 215 213 210 197 188 183
266 266 266 266 266 266 266 265 264 264 264 263 263 263 263 262 261 260 259 258 257 258 257 255 255 256 258 259 255 246 243 249 249 245 246 249 247 244 242 243 243 242 243 246 247 247 247 247 245 244 244 243 242 242 241 241 241 241 239 238 239 238 235 234 233 238 246 249 244 245 249 251 256 256 251 255 258 255 252 243 228 216 208 210 204 184 174 170
266 265 265 264 264 264 265 264 263 262 262 261 261 261 260 260 259 258 257 255 251 252 255 254 250 252 256 256 251 244 241 245 247 244 244 246 245 241 239 239 238 238 239 239 240 243 246 246 244 244 243 243 242 241 240 240 240 239 237 237 240 240 236 234 231 232 241 247 243 241 247 251 253 250 247 247 246 241 233 225 220 211 205 201 190 177 171 168
266 265 264 263 263 263 263 262 261 260 259 259 258 258 257 256 256 256 254 253 248 247 252 254 250 248 251 253 251 245 238 240 246 245 240 242 242 239 238 238 238 237 233 231 236 241 244 244 242 242 243 243 242 240 240 240 240 239 238 239 243 242 239 235 231 229 236 243 244 242 245 250 251 246 242 242 240 235 224 215 215 211 205 194 184 180 177 174
266 264 263 262 261 261 261 261 260 258 257 256 256 255 255 254 253 253 252 251 247 244 248 251 251 247 245 248 250 247 240 238 243 242 240 241 241 238 236 235 238 238 231 230 238 240 237 235 236 239 241 240 241 241 241 241 239 239 239 240 242 243 240 237 233 229 232 237 243 245 242 245 249 245 241 239 237 233 220 211 213 213 208 196 188 189 186 183
266 265 263 262 261 259 258 258 258 257 256 255 254 252 252 251 251 250 249 249 246 243 244 247 249 248 243 242 245 247 243 239 239 239 239 242 241 236 232 232 237 239 233 230 239 241 234 232 232 233 235 237 240 242 240 240 240 240 240 239 240 241 240 237 232 228 227 228 238 243 239 240 246 245 241 238 237 233 220 209 211 212 212 203 194 196 195 191
266 265 263 262 260 258 257 256 256 256 255 254 252 251 250 249 249 248 247 247 245 242 241 244 246 247 245 241 240 243 244 242 239 237 236 238 240 238 234 234 237 240 237 234 243 244 237 235 233 229 232 236 239 240 237 238 241 241 239 238 239 239 238 236 231 228 224 220 231 237 232 233 241 243 241 238 237 234 223 213 210 209 210 209 202 202 201 198
266 264 263 261 259 258 256 254 253 253 254 253 252 250 248 248 247 247 247 245 244 241 240 241 243 245 246 243 239 239 241 242 240 237 234 234 237 238 236 236 237 238 236 235 243 244 237 234 233 231 233 234 234 233 232 236 240 239 237 237 238 238 239 236 233 231 223 218 227 231 227 226 233 239 240 239 236 234 227 219 214 210 210 211 209 208 207 205
266 264 263 261 258 257 255 254 253 251 251 252 252 250 248 246 246 247 246 244 243 241 239 239 240 242 244 244 241 238 239 240 239 238 236 233 234 235 234 235 235 234 232 231 236 239 236 233 235 235 235 234 232 229 228 231 236 238 238 239 240 240 240 237 235 232 224 221 226 226 224 222 229 237 240 239 236 232 230 225 219 215 212 212 213 213 213 212
264 264 263 261 258 256 254 253 252 251 250 249 250 250 248 246 245 245 244 243 242 241 239 237 237 239 241 242 242 239 239 240 239 238 237 235 235 234 234 235 235 234 232 232 236 239 238 237 238 238 237 235 232 229 227 229 236 241 241 240 240 241 240 236 233 229 224 224 225 224 221 218 228 238 239 238 235 232 233 231 226 221 215 214 215 215 217 218
263 262 262 261 259 256 254 252 251 250 249 248 247 248 248 247 246 243 242 243 242 240 239 237 236 237 238 240 241 241 240 240 240 239 238 236 236 236 235 234 234 232 230 231 235 237 236 234 235 235 233 232 231 233 232 232 237 239 237 238 238 237 234 232 231 228 225 226 225 224 220 215 226 237 238 239 238 235 235 235 232 227 219 216 215 215 218 220
263 262 260 260 258 256 254 251 250 249 248 248 247 246 247 247 246 243 241 241 241 240 239 238 236 236 237 238 240 241 240 240 240 240 239 237 235 235 235 233 231 230 229 228 230 232 230 229 231 231 232 233 233 235 234 231 230 230 232 233 229 229 231 232 234 231 228 228 227 225 221 216 224 234 238 240 239 236 234 234 235 232 225 219 216 216 218 219
263 261 260 258 258 256 254 251 249 248 247 247 247 246 245 245 244 243 241 240 240 239 239 238 237 236 236 237 239 240 240 240 240 240 239 238 235 233 233 233 231 229 228 228 228 230 229 229 232 231 232 234 233 233 231 226 227 229 228 225 225 230 235 234 233 231 228 226 224 222 219 217 221 230 235 236 236 235 233 232 234 234 230 224 220 219 220 220
262 261 259 257 256 255 254 251 249 248 247 246 246 245 244 243 243 242 242 241 240 239 238 239 238 237 237 237 238 240 241 241 240 239 239 238 236 234 233 234 233 230 229 228 229 230 230 232 235 234 234 236 235 234 232 228 229 228 224 228 231 232 230 225 226 228 225 223 222 219 217 217 220 225 230 231 232 234 232 230 231 233 233 229 226 224 222 222
262 261 259 257 255 254 253 251 250 248 246 246 245 244 243 243 242 241 241 240 239 239 238 238 238 238 237 237 237 238 240 240 240 239 239 238 237 235 234 233 234 232 231 229 229 230 230 233 236 235 234 237 236 234 233 230 227 224 225 231 232 225 221 217 220 225 223 223 225 221 218 219 221 224 227 227 228 231 231 230 229 230 232 232 231 229 226 224
261 260 259 257 255 253 252 251 249 248 246 245 244 244 243 242 241 241 240 239 239 239 238 238 238 238 238 238 238 238 239 240 240 239 239 238 237 236 234 233 234 233 232 230 229 230 230 231 235 236 234 236 236 234 234 233 229 228 228 230 227 222 220 217 217 223 220 218 222 220 218 220 221 224 227 226 226 230 232 232 231 229 230 233 234 233 231 228
260 260 259 257 256 254 252 251 249 248 246 245 244 243 242 241 241 241 240 239 238 238 238 238 238 238 238 238 238 238 238 239 240 240 239 238 237 236 235 233 233 232 232 231 229 229 230 229 233 237 235 235 236 235 237 237 234 232 230 229 227 223 224 223 219 218 212 209 215 217 219 221 221 224 228 227 227 230 233 235 235 233 232 234 236 236 234 233
261 260 259 258 257 255 253 252 250 249 247 245 243 242 242 241 240 240 240 239 237 236 236 237 237 237 237 237 237 238 238 238 239 239 240 239 237 236 235 233 233 232 232 232 230 229 229 226 230 236 235 233 233 234 235 237 237 234 231 231 230 228 230 226 215 213 208 203 206 210 219 224 221 223 228 229 228 229 231 235 237 238 237 236 238 238 238 238
262 261 260 259 258 256 255 253 252 251 249 247 245 242 241 240 240 239 239 239 237 236 235 235 236 236 236 237 237 237 237 237 237 238 239 239 238 236 235 233 233 232 232 233 232 230 229 227 229 234 235 232 231 231 233 235 237 235 233 233 233 231 229 216 211 216 204 196 200 201 220 229 221 222 228 229 229 229 229 232 235 238 239 239 239 240 239 240
265 263 262 261 259 258 256 255 253 252 251 250 248 245 242 241 239 239 239 239 237 236 235 234 234 234 235 236 236 236 236 235 236 237 237 238 238 237 236 234 233 233 232 233 233 231 230 229 228 232 235 233 232 232 232 233 235 236 234 236 235 233 228 219 221 219 198 195 205 206 235 238 223 220 227 228 229 230 228 228 231 235 238 239 240 241 239 238
266 265 263 261 260 258 257 255 254 253 252 251 250 248 245 243 240 239 238 238 238 237 236 234 234 233 234 234 235 236 236 235 235 235 236 236 237 236 236 235 234 234 233 233 233 232 232 230 229 230 234 235 233 233 233 233 235 235 235 236 236 235 234 230 231 223 203 207 215 209 242 246 229 221 224 226 227 229 229 228 228 231 235 237 238 240 240 239
267 265 263 261 259 258 256 255 254 253 252 251 250 249 248 246 243 240 239 239 238 237 236 235 234 233 233 233 234 235 236 235 234 234 234 235 235 235 235 235 235 234 234 233 233 233 232 232 230 231 234 236 236 235 235 235 235 234 234 234 233 235 236 235 235 225 213 220 221 209 230 248 241 229 222 225 228 227 229 230 229 230 233 236 238 240 242 243
268 266 264 262 259 257 255 254 253 252 251 251 250 249 248 247 245 243 241 240 239 238 236 235 234 234 233 233 233 234 235 236 235 234 234 234 234 234 234 234 234 234 234 234 234 234 233 233 232 231 233 235 236 236 236 236 235 234 234 234 233 233 234 234 232 223 220 228 226 221 227 242 253 246 230 225 230 229 228 230 231 231 231 234 238 240 243 245
269 267 265 263 261 257 255 253 251 250 249 249 249 248 248 247 246 245 243 241 240 238 237 236 235 234 233 232 232 233 234 235 236 235 234 233 233 234 233 233 233 233 234 234 234 234 234 233 233 232 233 234 236 237 238 237 235 234 234 235 235 235 236 236 232 227 229 229 225 233 233 232 250 257 246 232 230 232 230 229 231 233 232 232 235 237 240 242
269 267 265 263 261 259 256 253 251 249 248 247 247 246 246 246 246 245 244 242 241 239 238 237 236 235 234 233 232 232 233 234 235 235 235 234 233 233 234 233 232 232 233 233 234 233 233 234 234 233 233 234 235 237 238 238 236 235 235 235 237 238 238 238 236 235 236 231 228 238 238 231 242 257 260 249 239 236 235 230 229 231 232 232 233 234 236 238
270 267 265 263 261 259 257 254 251 249 247 246 245 244 244 244 244 244 244 243 241 240 239 238 237 236 235 233 232 232 232 232 233 234 235 234 233 233 234 234 233 232 232 232 233 233 233 233 233 233 233 233 234 236 238 238 237 237 237 237 238 239 239 239 238 238 237 234 235 241 242 239 243 253 261 261 254 248 243 238 235 232 232 233 233 234 235 236
272 269 267 264 262 260 257 255 251 249 247 245 244 243 242 242 242 242 242 242 242 241 240 239 238 237 235 234 233 232 232 232 232 233 234 234 234 233 233 234 234 233 233 232 232 232 232 232 232 233 232 233 234 235 236 238 238 238 238 239 240 240 240 239 238 238 237 237 240 243 244 244 246 248 252 257 257 254 249 245 243 239 236 236 237 236 236 237
273 270 268 266 263 260 257 255 252 249 246 244 243 242 241 240 240 240 240 241 241 241 240 239 238 237 236 235 234 233 232 232 232 232 233 234 234 234 233 233 233 233 233 233 233 233 233 233 233 232 232 232 234 234 235 237 237 238 238 240 241 241 240 239 239 238 237 237 240 242 243 244 246 244 243 248 252 253 254 253 249 246 242 239 239 239 239 240
274 271 268 266 263 260 257 255 252 249 246 243 241 241 240 239 239 238 238 239 240 240 240 239 238 237 236 236 235 234 233 232 232 232 233 233 233 234 233 233 233 233 233 234 234 233 233 234 234 234 232 232 234 234 234 235 236 237 238 240 241 239 237 236 237 236 236 238 239 240 239 239 241 242 243 246 249 251 255 257 255 252 249 246 243 241 240 244